EWG8RW EDDL-LGSA

Flight info

Callsign EWG8RW
Flight time 2h 55m
Altitude 35000
Route DODEN1T/23L DODEN Y852 TUSUK DCT ULNOK L607 ABUKA DCT UTABA DCT BEMKI DCT ELMEM DCT DIRAB DCT VESAL DCT VAKSU DCT DIMIS DCT KOR/N0416F310 UY115 DDM UY151 IXIMA UL612 RUSOS
Aircraft A321/M-SDE2E3FGIJ1LORWXY/HB1

Departure

Time 2026-05-05 11:43
Airport Düsseldorf Airport (EDDL)

Arrival

Time 2026-05-05 14:38
Airport Chania International Airport (LGSA)
Time Latitude Longitude Altitude Speed Heading
2026-05-05 11:06 51.28151 6.76535 118 ft 0 kts 96°
2026-05-05 11:29 51.28151 6.76531 118 ft 3 kts 96°
2026-05-05 11:30 51.28156 6.76501 117 ft 3 kts 124°
2026-05-05 11:30 51.28169 6.76479 114 ft 3 kts 144°
2026-05-05 11:30 51.28185 6.76461 114 ft 3 kts 144°
2026-05-05 11:30 51.28198 6.76446 113 ft 3 kts 132°
2026-05-05 11:31 51.28208 6.76420 114 ft 3 kts 102°
2026-05-05 11:31 51.28211 6.76390 114 ft 3 kts 79°
2026-05-05 11:31 51.28204 6.76362 115 ft 3 kts 52°
2026-05-05 11:31 51.28203 6.76358 115 ft 0 kts 52°
2026-05-05 11:34 51.28205 6.76364 115 ft 2 kts 53°
2026-05-05 11:34 51.28226 6.76410 115 ft 7 kts 55°
2026-05-05 11:34 51.28258 6.76480 115 ft 8 kts 51°
2026-05-05 11:35 51.28311 6.76490 117 ft 9 kts 336°
2026-05-05 11:35 51.28364 6.76514 117 ft 9 kts 51°
2026-05-05 11:35 51.28403 6.76595 113 ft 10 kts 52°
2026-05-05 11:35 51.28447 6.76686 116 ft 11 kts 52°
2026-05-05 11:36 51.28494 6.76783 114 ft 11 kts 53°
2026-05-05 11:36 51.28543 6.76887 115 ft 12 kts 53°
2026-05-05 11:36 51.28596 6.76999 116 ft 13 kts 52°
2026-05-05 11:36 51.28652 6.77115 117 ft 14 kts 52°
2026-05-05 11:37 51.28712 6.77241 117 ft 15 kts 53°
2026-05-05 11:37 51.28775 6.77373 117 ft 15 kts 52°
2026-05-05 11:37 51.28841 6.77512 118 ft 16 kts 53°
2026-05-05 11:37 51.28910 6.77658 115 ft 17 kts 52°
2026-05-05 11:38 51.28982 6.77808 117 ft 17 kts 53°
2026-05-05 11:38 51.29056 6.77963 116 ft 18 kts 53°
2026-05-05 11:38 51.29132 6.78123 117 ft 18 kts 53°
2026-05-05 11:38 51.29210 6.78269 117 ft 16 kts 37°
2026-05-05 11:39 51.29301 6.78375 115 ft 16 kts 36°
2026-05-05 11:39 51.29349 6.78431 116 ft 0 kts 36°
2026-05-05 11:39 51.29354 6.78436 116 ft 1 kts 36°
2026-05-05 11:39 51.29359 6.78442 113 ft 1 kts 36°
2026-05-05 11:40 51.29365 6.78449 113 ft 0 kts 35°
2026-05-05 11:41 51.29366 6.78449 113 ft 0 kts 35°
2026-05-05 11:41 51.29375 6.78460 117 ft 4 kts 34°
2026-05-05 11:41 51.29412 6.78470 116 ft 6 kts 357°
2026-05-05 11:41 51.29457 6.78466 115 ft 7 kts 355°
2026-05-05 11:42 51.29484 6.78414 117 ft 7 kts 273°
2026-05-05 11:42 51.29398 6.78220 114 ft 53 kts 238°
2026-05-05 11:42 51.29033 6.77447 117 ft 119 kts 235°
2026-05-05 11:42 51.28410 6.76136 142 ft 172 kts 233°
2026-05-05 11:43 51.27679 6.74603 785 ft 173 kts 236°
2026-05-05 11:43 51.26972 6.73077 1468 ft 172 kts 235°
2026-05-05 11:43 51.26251 6.71513 1931 ft 180 kts 235°
2026-05-05 11:43 51.25478 6.69842 2287 ft 194 kts 233°
2026-05-05 11:44 51.24640 6.68039 2615 ft 209 kts 233°
2026-05-05 11:44 51.23740 6.66110 2919 ft 223 kts 233°
2026-05-05 11:44 51.22594 6.64308 3189 ft 241 kts 209°
2026-05-05 11:44 51.20954 6.63572 3616 ft 254 kts 179°
2026-05-05 11:45 51.19154 6.63806 4177 ft 263 kts 174°
2026-05-05 11:45 51.17346 6.64110 4927 ft 265 kts 174°
2026-05-05 11:45 51.15541 6.64697 5721 ft 266 kts 156°
2026-05-05 11:45 51.14047 6.66407 6481 ft 267 kts 131°
2026-05-05 11:46 51.13186 6.69026 7136 ft 273 kts 104°
2026-05-05 11:46 51.13106 6.72089 7757 ft 279 kts 88°
2026-05-05 11:46 51.13232 6.75160 8382 ft 282 kts 88°
2026-05-05 11:46 51.13365 6.78298 9041 ft 285 kts 88°
2026-05-05 11:47 51.13495 6.81470 9694 ft 287 kts 88°
2026-05-05 11:47 51.13623 6.84680 10212 ft 295 kts 89°
2026-05-05 11:47 51.13749 6.88024 10461 ft 310 kts 89°
2026-05-05 11:47 51.13878 6.91552 10689 ft 326 kts 89°
2026-05-05 11:48 51.14150 6.99047 11278 ft 350 kts 88°
2026-05-05 11:48 51.14295 7.02941 11812 ft 354 kts 88°
2026-05-05 11:48 51.14437 7.06879 12372 ft 357 kts 88°
2026-05-05 11:49 51.14577 7.10859 12924 ft 361 kts 88°
2026-05-05 11:49 51.14716 7.14832 13446 ft 365 kts 88°
2026-05-05 11:49 51.14857 7.18899 13977 ft 369 kts 88°
2026-05-05 11:49 51.14998 7.23004 14532 ft 372 kts 88°
2026-05-05 11:50 51.15136 7.27134 15037 ft 374 kts 88°
2026-05-05 11:50 51.15272 7.31292 15534 ft 377 kts 88°
2026-05-05 11:50 51.15408 7.35474 16025 ft 379 kts 89°
2026-05-05 11:50 51.15284 7.39679 16504 ft 379 kts 101°
2026-05-05 11:51 51.14604 7.43726 16978 ft 379 kts 113°
2026-05-05 11:51 51.13401 7.47467 17441 ft 380 kts 125°
2026-05-05 11:51 51.11733 7.50729 17914 ft 380 kts 137°
2026-05-05 11:51 51.09837 7.53624 18333 ft 383 kts 138°
2026-05-05 11:52 51.07901 7.56569 18726 ft 385 kts 138°
2026-05-05 11:52 51.05950 7.59537 19141 ft 387 kts 137°
2026-05-05 11:52 51.03997 7.62510 19559 ft 389 kts 138°
2026-05-05 11:52 51.02029 7.65502 19998 ft 391 kts 138°
2026-05-05 11:53 51.00079 7.68464 20384 ft 393 kts 138°
2026-05-05 11:53 50.98091 7.71483 20792 ft 395 kts 138°
2026-05-05 11:53 50.95989 7.74279 21183 ft 394 kts 147°
2026-05-05 11:53 50.93659 7.76614 21570 ft 396 kts 150°
2026-05-05 11:54 50.91307 7.78922 21956 ft 398 kts 150°
2026-05-05 11:54 50.88942 7.81247 22346 ft 399 kts 150°
2026-05-05 11:54 50.86602 7.83548 22743 ft 401 kts 150°
2026-05-05 11:54 50.84219 7.85888 23159 ft 403 kts 150°
2026-05-05 11:55 50.81830 7.88232 23549 ft 405 kts 150°
2026-05-05 11:55 50.79424 7.90594 23888 ft 407 kts 150°
2026-05-05 11:55 50.77012 7.92960 24204 ft 409 kts 150°
2026-05-05 11:55 50.74587 7.95334 24498 ft 411 kts 150°
2026-05-05 11:56 50.72146 7.97719 24790 ft 412 kts 150°
2026-05-05 11:56 50.69728 8.00077 25085 ft 414 kts 150°
2026-05-05 11:56 50.67268 8.02474 25383 ft 416 kts 150°
2026-05-05 11:56 50.64801 8.04878 25698 ft 418 kts 151°
2026-05-05 11:57 50.62286 8.07185 25994 ft 417 kts 156°
2026-05-05 11:57 50.59586 8.08848 26290 ft 416 kts 166°
2026-05-05 11:57 50.56757 8.09763 26585 ft 415 kts 175°
2026-05-05 11:57 50.53871 8.10149 26892 ft 416 kts 177°
2026-05-05 11:58 50.50980 8.10525 27199 ft 417 kts 177°
2026-05-05 11:58 50.48078 8.10909 27501 ft 418 kts 177°
2026-05-05 11:58 50.45169 8.11294 27803 ft 419 kts 177°
2026-05-05 11:58 50.42256 8.11677 28121 ft 421 kts 177°
2026-05-05 11:59 50.39335 8.12061 28413 ft 422 kts 177°
2026-05-05 11:59 50.37396 8.12316 28605 ft 422 kts 178°
2026-05-05 11:59 50.33506 8.12822 28990 ft 423 kts 178°
2026-05-05 11:59 50.30565 8.13205 29266 ft 424 kts 178°
2026-05-05 12:00 50.27620 8.13588 29539 ft 425 kts 178°
2026-05-05 12:00 50.24673 8.13971 29802 ft 425 kts 178°
2026-05-05 12:00 50.22677 8.14230 29961 ft 426 kts 178°
2026-05-05 12:00 50.19727 8.14614 30209 ft 425 kts 178°
2026-05-05 12:01 50.16782 8.15049 30520 ft 424 kts 174°
2026-05-05 12:01 50.13935 8.16033 30836 ft 425 kts 166°
2026-05-05 12:01 50.11143 8.17754 31155 ft 427 kts 157°
2026-05-05 12:01 50.08582 8.20026 31429 ft 429 kts 153°
2026-05-05 12:02 50.06028 8.22405 31688 ft 428 kts 154°
2026-05-05 12:02 50.03468 8.24779 31972 ft 426 kts 154°
2026-05-05 12:02 50.00919 8.27135 32263 ft 425 kts 154°
2026-05-05 12:02 49.98383 8.29476 32552 ft 424 kts 154°
2026-05-05 12:03 49.95847 8.31815 32811 ft 423 kts 154°
2026-05-05 12:03 49.93312 8.34154 33104 ft 422 kts 154°
2026-05-05 12:03 49.90786 8.36478 33386 ft 421 kts 154°
2026-05-05 12:03 49.88261 8.38795 33645 ft 420 kts 154°
2026-05-05 12:04 49.85763 8.41139 33884 ft 421 kts 151°
2026-05-05 12:04 49.83444 8.43970 34087 ft 426 kts 142°
2026-05-05 12:04 49.81305 8.47083 34269 ft 427 kts 142°
2026-05-05 12:04 49.79114 8.50276 34466 ft 427 kts 142°
2026-05-05 12:05 49.76947 8.53428 34642 ft 427 kts 142°
2026-05-05 12:05 49.74784 8.56514 34805 ft 425 kts 146°
2026-05-05 12:05 49.69791 8.61062 34854 ft 411 kts 164°
2026-05-05 12:06 49.64305 8.62992 34860 ft 405 kts 173°
2026-05-05 12:06 49.58733 8.64516 34864 ft 405 kts 173°
2026-05-05 12:07 49.53168 8.66076 34865 ft 405 kts 173°
2026-05-05 12:07 49.47624 8.67648 34868 ft 405 kts 169°
2026-05-05 12:08 49.42331 8.70693 34862 ft 410 kts 160°
2026-05-05 12:08 49.37092 8.74178 34865 ft 410 kts 160°
2026-05-05 12:09 49.31826 8.77646 34865 ft 409 kts 160°
2026-05-05 12:09 49.26614 8.81077 34861 ft 409 kts 160°
2026-05-05 12:10 49.21368 8.84533 34860 ft 409 kts 160°
2026-05-05 12:10 49.16160 8.87939 34863 ft 409 kts 160°
2026-05-05 12:11 49.10913 8.91361 34861 ft 409 kts 160°
2026-05-05 12:11 49.05676 8.94788 34864 ft 408 kts 160°
2026-05-05 12:12 49.00471 8.98187 34862 ft 408 kts 160°
2026-05-05 12:12 48.95235 9.01583 34855 ft 408 kts 160°
2026-05-05 12:13 48.89996 9.04978 34850 ft 409 kts 160°
2026-05-05 12:13 48.84747 9.08371 34844 ft 410 kts 160°
2026-05-05 12:14 48.79522 9.11739 34837 ft 410 kts 160°
2026-05-05 12:14 48.74248 9.15133 34836 ft 411 kts 159°
2026-05-05 12:15 48.68970 9.18533 34833 ft 412 kts 159°
2026-05-05 12:15 48.63701 9.21917 34835 ft 412 kts 160°
2026-05-05 12:16 48.58409 9.25303 34842 ft 413 kts 160°
2026-05-05 12:16 48.53095 9.28696 34845 ft 413 kts 160°
2026-05-05 12:17 48.47785 9.32066 34850 ft 414 kts 160°
2026-05-05 12:17 48.42496 9.35419 34856 ft 414 kts 160°
2026-05-05 12:18 48.37180 9.38792 34865 ft 414 kts 160°
2026-05-05 12:18 48.31844 9.42162 34873 ft 414 kts 160°
2026-05-05 12:19 48.26542 9.45599 34874 ft 416 kts 155°
2026-05-05 12:19 48.21833 9.50685 34864 ft 422 kts 144°
2026-05-05 12:20 48.17287 9.56312 34873 ft 423 kts 144°
2026-05-05 12:20 48.12755 9.61874 34869 ft 423 kts 144°
2026-05-05 12:21 48.08178 9.67466 34870 ft 423 kts 144°
2026-05-05 12:21 48.04717 9.71699 34864 ft 424 kts 144°
2026-05-05 12:22 48.00168 9.77256 34871 ft 424 kts 144°
2026-05-05 12:22 47.95584 9.82837 34873 ft 425 kts 144°
2026-05-05 12:23 47.90988 9.88409 34872 ft 425 kts 144°
2026-05-05 12:23 47.86414 9.93952 34870 ft 426 kts 144°
2026-05-05 12:24 47.81795 9.99543 34871 ft 427 kts 144°
2026-05-05 12:24 47.77171 10.05119 34868 ft 427 kts 144°
2026-05-05 12:25 47.72563 10.10660 34871 ft 428 kts 145°
2026-05-05 12:25 47.67916 10.16237 34872 ft 428 kts 145°
2026-05-05 12:26 47.63297 10.21776 34868 ft 429 kts 145°
2026-05-05 12:26 47.58641 10.27335 34865 ft 430 kts 145°
2026-05-05 12:27 47.53849 10.32597 34861 ft 428 kts 150°
2026-05-05 12:27 47.48864 10.37437 34857 ft 428 kts 150°
2026-05-05 12:28 47.43877 10.42273 34851 ft 429 kts 150°
2026-05-05 12:28 47.38910 10.47087 34851 ft 429 kts 150°
2026-05-05 12:29 47.33899 10.51926 34852 ft 431 kts 151°
2026-05-05 12:29 47.28875 10.56764 34858 ft 431 kts 151°
2026-05-05 12:30 47.23922 10.61775 34870 ft 432 kts 148°
2026-05-05 12:30 47.19070 10.66969 34877 ft 433 kts 148°
2026-05-05 12:31 47.14181 10.72178 34880 ft 433 kts 148°
2026-05-05 12:31 47.09244 10.77347 34884 ft 435 kts 148°
2026-05-05 12:32 47.04317 10.82471 34899 ft 436 kts 149°
2026-05-05 12:32 46.99351 10.87613 34916 ft 436 kts 149°
2026-05-05 12:33 46.95219 10.91899 34923 ft 437 kts 149°
2026-05-05 12:33 46.90227 10.97071 34953 ft 438 kts 149°
2026-05-05 12:34 46.85276 11.02199 34954 ft 438 kts 149°
2026-05-05 12:34 46.80442 11.07696 34966 ft 444 kts 138°
2026-05-05 12:35 46.76193 11.14322 34969 ft 447 kts 137°
2026-05-05 12:35 46.71958 11.20923 34985 ft 448 kts 137°
2026-05-05 12:36 46.67682 11.27551 34985 ft 449 kts 137°
2026-05-05 12:36 46.63389 11.34184 34986 ft 450 kts 137°
2026-05-05 12:37 46.59079 11.40842 34992 ft 451 kts 137°
2026-05-05 12:37 46.54779 11.47470 34986 ft 452 kts 137°
2026-05-05 12:38 46.50449 11.54127 34990 ft 454 kts 137°
2026-05-05 12:38 46.46119 11.60760 34989 ft 455 kts 137°
2026-05-05 12:39 46.41755 11.67440 34993 ft 456 kts 137°
2026-05-05 12:39 46.37406 11.74153 35000 ft 457 kts 135°
2026-05-05 12:40 46.33309 11.81265 35001 ft 460 kts 132°
2026-05-05 12:40 46.29351 11.88506 35006 ft 461 kts 132°
2026-05-05 12:41 46.25314 11.95724 35013 ft 461 kts 133°
2026-05-05 12:41 46.21203 12.02877 35018 ft 462 kts 134°
2026-05-05 12:42 46.17098 12.09961 35023 ft 462 kts 134°
2026-05-05 12:42 46.12966 12.17114 35035 ft 463 kts 133°
2026-05-05 12:43 46.08828 12.24284 35047 ft 464 kts 133°
2026-05-05 12:43 46.04706 12.31402 35055 ft 464 kts 133°
2026-05-05 12:44 46.00549 12.38563 35064 ft 465 kts 133°
2026-05-05 12:44 45.96399 12.45702 35067 ft 465 kts 133°
2026-05-05 12:45 45.92239 12.52832 35066 ft 465 kts 133°
2026-05-05 12:45 45.88065 12.59961 35067 ft 465 kts 134°
2026-05-05 12:46 45.83884 12.67067 35058 ft 466 kts 134°
2026-05-05 12:46 45.79727 12.74127 35060 ft 466 kts 134°
2026-05-05 12:47 45.75536 12.81248 35041 ft 466 kts 133°
2026-05-05 12:47 45.71338 12.88361 35040 ft 466 kts 134°
2026-05-05 12:48 45.67136 12.95447 35038 ft 466 kts 134°
2026-05-05 12:48 45.62960 13.02484 35032 ft 466 kts 134°
2026-05-05 12:49 45.58744 13.09557 35031 ft 466 kts 134°
2026-05-05 12:49 45.54540 13.16580 35031 ft 467 kts 134°
2026-05-05 12:50 45.50311 13.23638 35031 ft 467 kts 134°
2026-05-05 12:50 45.46079 13.30697 35030 ft 467 kts 134°
2026-05-05 12:51 45.41857 13.37732 35031 ft 467 kts 134°
2026-05-05 12:51 45.37639 13.44718 35030 ft 467 kts 134°
2026-05-05 12:52 45.33386 13.51740 35033 ft 467 kts 134°
2026-05-05 12:52 45.29145 13.58731 35032 ft 467 kts 134°
2026-05-05 12:53 45.24921 13.65685 35040 ft 467 kts 134°
2026-05-05 12:53 45.20661 13.72681 35035 ft 467 kts 134°
2026-05-05 12:54 45.14291 13.83098 35056 ft 467 kts 134°
2026-05-05 12:55 45.10014 13.90066 35055 ft 467 kts 134°
2026-05-05 12:55 45.05766 13.96977 35058 ft 467 kts 134°
2026-05-05 12:56 45.01490 14.03911 35057 ft 466 kts 134°
2026-05-05 12:56 44.97226 14.10820 35058 ft 466 kts 134°
2026-05-05 12:57 44.92951 14.17728 35059 ft 466 kts 134°
2026-05-05 12:57 44.88698 14.24582 35057 ft 466 kts 134°
2026-05-05 12:58 44.84412 14.31470 35052 ft 466 kts 134°
2026-05-05 12:58 44.80120 14.38345 35052 ft 466 kts 134°
2026-05-05 12:59 44.75858 14.45171 35051 ft 466 kts 134°
2026-05-05 12:59 44.71561 14.52024 35057 ft 466 kts 134°
2026-05-05 13:00 44.65110 14.62271 35061 ft 465 kts 134°
2026-05-05 13:01 44.56532 14.75861 35061 ft 465 kts 134°
2026-05-05 13:01 44.52258 14.82594 35038 ft 465 kts 134°
2026-05-05 13:02 44.47947 14.89381 35055 ft 465 kts 134°
2026-05-05 13:02 44.43628 14.96164 35061 ft 465 kts 134°
2026-05-05 13:03 44.39313 15.02925 35055 ft 465 kts 134°
2026-05-05 13:03 44.34994 15.09677 35070 ft 465 kts 135°
2026-05-05 13:04 44.30686 15.16393 35081 ft 465 kts 135°
2026-05-05 13:04 44.26348 15.23148 35098 ft 466 kts 135°
2026-05-05 13:05 44.22040 15.29845 35107 ft 466 kts 135°
2026-05-05 13:05 44.18420 15.35450 35111 ft 467 kts 135°
2026-05-05 13:06 44.13344 15.43279 35110 ft 467 kts 135°
2026-05-05 13:06 44.09713 15.48867 35114 ft 467 kts 135°
2026-05-05 13:07 44.05342 15.55578 35105 ft 467 kts 135°
2026-05-05 13:07 44.00979 15.62266 35101 ft 466 kts 135°
2026-05-05 13:08 43.96613 15.68963 35082 ft 466 kts 135°
2026-05-05 13:08 43.92242 15.75634 35085 ft 466 kts 135°
2026-05-05 13:09 43.87896 15.82264 35082 ft 466 kts 135°
2026-05-05 13:09 43.83514 15.88923 35085 ft 467 kts 135°
2026-05-05 13:10 43.79118 15.95582 35076 ft 467 kts 135°
2026-05-05 13:10 43.74751 16.02188 35093 ft 467 kts 135°
2026-05-05 13:11 43.70352 16.08828 35100 ft 467 kts 136°
2026-05-05 13:11 43.65974 16.15417 35119 ft 467 kts 136°
2026-05-05 13:12 43.61566 16.22035 35126 ft 466 kts 136°
2026-05-05 13:12 43.57157 16.28632 35123 ft 466 kts 136°
2026-05-05 13:13 43.52771 16.35182 35120 ft 467 kts 136°
2026-05-05 13:13 43.48347 16.41783 35118 ft 467 kts 136°
2026-05-05 13:14 43.43927 16.48378 35104 ft 468 kts 136°
2026-05-05 13:14 43.39524 16.54928 35100 ft 468 kts 136°
2026-05-05 13:15 43.35089 16.61491 35097 ft 468 kts 136°
2026-05-05 13:15 43.30645 16.68049 35100 ft 467 kts 136°
2026-05-05 13:16 43.26233 16.74554 35098 ft 467 kts 136°
2026-05-05 13:16 43.21788 16.81077 35094 ft 467 kts 136°
2026-05-05 13:17 43.17327 16.87625 35096 ft 468 kts 136°
2026-05-05 13:17 43.12894 16.94138 35090 ft 470 kts 136°
2026-05-05 13:18 43.08413 17.00683 35086 ft 471 kts 136°
2026-05-05 13:18 43.03941 17.07190 35094 ft 471 kts 136°
2026-05-05 13:19 42.99444 17.13733 35099 ft 471 kts 136°
2026-05-05 13:19 42.94944 17.20266 35094 ft 472 kts 136°
2026-05-05 13:20 42.90455 17.26769 35092 ft 473 kts 136°
2026-05-05 13:20 42.85921 17.33311 35088 ft 474 kts 136°
2026-05-05 13:21 42.81378 17.39850 35090 ft 475 kts 136°
2026-05-05 13:21 42.76819 17.46402 35096 ft 476 kts 136°
2026-05-05 13:22 42.72255 17.52960 35091 ft 477 kts 136°
2026-05-05 13:22 42.67698 17.59487 35094 ft 478 kts 136°
2026-05-05 13:23 42.63098 17.66048 35093 ft 479 kts 136°
2026-05-05 13:23 42.58502 17.72599 35092 ft 480 kts 137°
2026-05-05 13:24 42.53882 17.79163 35095 ft 481 kts 137°
2026-05-05 13:24 42.49241 17.85739 35103 ft 482 kts 137°
2026-05-05 13:25 42.44614 17.92280 35111 ft 483 kts 137°
2026-05-05 13:25 42.39946 17.98868 35116 ft 484 kts 137°
2026-05-05 13:26 42.35272 18.05448 35119 ft 484 kts 137°
2026-05-05 13:26 42.30595 18.12029 35120 ft 485 kts 137°
2026-05-05 13:27 42.25942 18.18557 35114 ft 486 kts 137°
2026-05-05 13:27 42.21229 18.25143 35106 ft 487 kts 137°
2026-05-05 13:28 42.16507 18.31727 35105 ft 488 kts 137°
2026-05-05 13:28 42.11798 18.38279 35107 ft 489 kts 137°
2026-05-05 13:29 42.07057 18.44874 35105 ft 490 kts 138°
2026-05-05 13:29 42.02300 18.51460 35105 ft 490 kts 139°
2026-05-05 13:30 41.97151 18.57422 35105 ft 488 kts 145°
2026-05-05 13:30 41.91888 18.63222 35105 ft 489 kts 145°
2026-05-05 13:31 41.86610 18.69027 35108 ft 490 kts 145°
2026-05-05 13:31 41.81330 18.74836 35112 ft 491 kts 145°
2026-05-05 13:32 41.76062 18.80620 35111 ft 492 kts 145°
2026-05-05 13:32 41.70758 18.86432 35113 ft 493 kts 145°
2026-05-05 13:33 41.65433 18.92262 35110 ft 494 kts 145°
2026-05-05 13:33 41.60094 18.98078 35111 ft 495 kts 145°
2026-05-05 13:34 41.54735 19.03897 35112 ft 496 kts 145°
2026-05-05 13:34 41.49405 19.09685 35116 ft 496 kts 145°
2026-05-05 13:35 41.44038 19.15495 35115 ft 497 kts 145°
2026-05-05 13:35 41.38661 19.21304 35118 ft 497 kts 145°
2026-05-05 13:36 41.33270 19.27122 35117 ft 498 kts 145°
2026-05-05 13:36 41.27869 19.32934 35118 ft 499 kts 145°
2026-05-05 13:37 41.22494 19.38701 35116 ft 499 kts 145°
2026-05-05 13:37 41.17064 19.44513 35116 ft 500 kts 144°
2026-05-05 13:38 41.11655 19.50293 35115 ft 501 kts 145°
2026-05-05 13:38 41.06210 19.56095 35110 ft 502 kts 144°
2026-05-05 13:39 41.01642 19.60962 35105 ft 503 kts 144°
2026-05-05 13:39 40.96217 19.66731 35105 ft 503 kts 144°
2026-05-05 13:40 40.90736 19.72539 35106 ft 504 kts 144°
2026-05-05 13:40 40.85246 19.78334 35104 ft 504 kts 144°
2026-05-05 13:41 40.79758 19.84125 35106 ft 504 kts 144°
2026-05-05 13:41 40.74288 19.89881 35104 ft 505 kts 144°
2026-05-05 13:42 40.68776 19.95665 35106 ft 506 kts 144°
2026-05-05 13:42 40.63273 20.01452 35103 ft 506 kts 144°
2026-05-05 13:43 40.57772 20.07212 35101 ft 507 kts 144°
2026-05-05 13:43 40.52225 20.12992 35101 ft 507 kts 144°
2026-05-05 13:44 40.46681 20.18765 35102 ft 508 kts 143°
2026-05-05 13:44 40.41167 20.24502 35096 ft 508 kts 144°
2026-05-05 13:45 40.35615 20.30250 35100 ft 508 kts 143°
2026-05-05 13:45 40.30049 20.36006 35098 ft 509 kts 144°
2026-05-05 13:46 40.24478 20.41758 35100 ft 508 kts 144°
2026-05-05 13:46 40.18910 20.47500 35101 ft 508 kts 144°
2026-05-05 13:47 40.13374 20.53196 35100 ft 509 kts 143°
2026-05-05 13:47 40.07791 20.58922 35101 ft 509 kts 144°
2026-05-05 13:48 40.02307 20.64813 35102 ft 510 kts 140°
2026-05-05 13:48 39.97026 20.70950 35106 ft 510 kts 139°
2026-05-05 13:49 39.91732 20.77134 35111 ft 510 kts 140°
2026-05-05 13:49 39.86373 20.83213 35112 ft 509 kts 140°
2026-05-05 13:50 39.81002 20.89232 35119 ft 509 kts 140°
2026-05-05 13:50 39.75667 20.95227 35120 ft 508 kts 140°
2026-05-05 13:51 39.70307 21.01248 35113 ft 509 kts 140°
2026-05-05 13:51 39.64933 21.07265 35113 ft 509 kts 140°
2026-05-05 13:52 39.59584 21.13250 35107 ft 510 kts 140°
2026-05-05 13:52 39.54202 21.19266 35126 ft 508 kts 140°
2026-05-05 13:53 39.48809 21.25275 35110 ft 508 kts 140°
2026-05-05 13:53 39.43461 21.31218 35117 ft 508 kts 140°
2026-05-05 13:54 39.38089 21.37204 35090 ft 509 kts 140°
2026-05-05 13:54 39.32715 21.43154 35115 ft 507 kts 140°
2026-05-05 13:55 39.27381 21.49037 35108 ft 507 kts 140°
2026-05-05 13:55 39.22021 21.54955 35101 ft 505 kts 140°
2026-05-05 13:56 39.16659 21.60852 35107 ft 504 kts 140°
2026-05-05 13:56 39.11358 21.66669 35109 ft 502 kts 140°
2026-05-05 13:57 39.06022 21.72512 35097 ft 501 kts 140°
2026-05-05 13:57 39.00708 21.78324 35107 ft 500 kts 140°
2026-05-05 13:58 38.95395 21.84128 35103 ft 499 kts 140°
2026-05-05 13:58 38.90091 21.89899 35107 ft 499 kts 141°
2026-05-05 13:59 38.82171 21.98507 35090 ft 498 kts 141°
2026-05-05 14:00 38.75112 22.06160 35087 ft 498 kts 141°
2026-05-05 14:00 38.68952 22.12810 35087 ft 498 kts 140°
2026-05-05 14:01 38.63642 22.18533 35103 ft 496 kts 141°
2026-05-05 14:01 38.58340 22.24243 35073 ft 499 kts 140°
2026-05-05 14:02 38.53052 22.29915 35077 ft 498 kts 141°
2026-05-05 14:02 38.47731 22.35616 35083 ft 498 kts 140°
2026-05-05 14:03 38.42408 22.41316 35073 ft 499 kts 140°
2026-05-05 14:03 38.37097 22.46984 35075 ft 500 kts 140°
2026-05-05 14:04 38.31752 22.52685 35072 ft 500 kts 140°
2026-05-05 14:04 38.26409 22.58367 35077 ft 500 kts 140°
2026-05-05 14:05 38.21057 22.64050 35081 ft 500 kts 141°
2026-05-05 14:05 38.15696 22.69712 35073 ft 500 kts 141°
2026-05-05 14:06 38.10368 22.75333 35076 ft 500 kts 140°
2026-05-05 14:06 38.05006 22.81000 35073 ft 500 kts 141°
2026-05-05 14:07 37.99649 22.86649 35068 ft 500 kts 141°
2026-05-05 14:07 37.94265 22.92245 35069 ft 500 kts 144°
2026-05-05 14:08 37.88249 22.96599 35063 ft 497 kts 156°
2026-05-05 14:08 37.82057 23.00445 35062 ft 497 kts 156°
2026-05-05 14:09 37.75828 23.04312 35066 ft 497 kts 156°
2026-05-05 14:09 37.69659 23.08151 35062 ft 497 kts 156°
2026-05-05 14:10 37.63429 23.12025 35068 ft 496 kts 156°
2026-05-05 14:10 37.57214 23.15877 35060 ft 497 kts 156°
2026-05-05 14:11 37.51031 23.19698 35063 ft 497 kts 156°
2026-05-05 14:11 37.44534 23.22413 35072 ft 488 kts 174°
2026-05-05 14:12 37.37811 23.23824 35061 ft 489 kts 174°
2026-05-05 14:12 37.32223 23.25014 35062 ft 489 kts 174°
2026-05-05 14:13 37.25496 23.26445 35070 ft 489 kts 174°
2026-05-05 14:13 37.18783 23.27854 35071 ft 488 kts 174°
2026-05-05 14:14 37.12070 23.29252 35077 ft 488 kts 174°
2026-05-05 14:14 37.05394 23.30643 35078 ft 488 kts 174°
2026-05-05 14:15 36.98714 23.32050 35079 ft 488 kts 174°
2026-05-05 14:15 36.91995 23.33465 35078 ft 490 kts 174°
2026-05-05 14:16 36.88613 23.34182 34767 ft 495 kts 172°
2026-05-05 14:16 36.85259 23.35363 33912 ft 505 kts 160°
2026-05-05 14:16 36.82111 23.37327 33291 ft 504 kts 148°
2026-05-05 14:16 36.79316 23.39942 32819 ft 499 kts 137°
2026-05-05 14:17 36.76947 23.43073 32300 ft 493 kts 125°
2026-05-05 14:17 36.74925 23.46448 31806 ft 489 kts 124°
2026-05-05 14:17 36.72905 23.49845 31309 ft 485 kts 123°
2026-05-05 14:17 36.70897 23.53217 30808 ft 481 kts 123°
2026-05-05 14:18 36.68912 23.56551 30315 ft 477 kts 123°
2026-05-05 14:18 36.66935 23.59872 29808 ft 473 kts 123°
2026-05-05 14:18 36.64978 23.63153 29337 ft 468 kts 123°
2026-05-05 14:18 36.63068 23.66350 28875 ft 462 kts 123°
2026-05-05 14:19 36.61154 23.69549 28428 ft 457 kts 123°
2026-05-05 14:19 36.59259 23.72712 27986 ft 452 kts 123°
2026-05-05 14:19 36.57384 23.75840 27560 ft 447 kts 123°
2026-05-05 14:19 36.55538 23.78923 27137 ft 442 kts 124°
2026-05-05 14:20 36.53712 23.81973 26724 ft 438 kts 124°
2026-05-05 14:20 36.51897 23.85001 26298 ft 433 kts 124°
2026-05-05 14:20 36.50120 23.87964 25903 ft 429 kts 124°
2026-05-05 14:20 36.48344 23.90925 25487 ft 425 kts 124°
2026-05-05 14:21 36.46575 23.93864 25069 ft 422 kts 124°
2026-05-05 14:21 36.44817 23.96776 24650 ft 419 kts 124°
2026-05-05 14:21 36.43069 23.99666 24216 ft 416 kts 125°
2026-05-05 14:21 36.41335 24.02532 23790 ft 414 kts 125°
2026-05-05 14:22 36.39612 24.05386 23312 ft 410 kts 125°
2026-05-05 14:22 36.37913 24.08218 22878 ft 405 kts 124°
2026-05-05 14:22 36.36239 24.11018 22439 ft 401 kts 124°
2026-05-05 14:22 36.34607 24.13750 22023 ft 397 kts 124°
2026-05-05 14:23 36.32965 24.16493 21596 ft 393 kts 124°
2026-05-05 14:23 36.31339 24.19205 21164 ft 389 kts 124°
2026-05-05 14:23 36.29728 24.21891 20739 ft 386 kts 124°
2026-05-05 14:23 36.28124 24.24555 20316 ft 383 kts 125°
2026-05-05 14:24 36.26533 24.27193 19900 ft 380 kts 125°
2026-05-05 14:24 36.24952 24.29809 19483 ft 377 kts 125°
2026-05-05 14:24 36.23204 24.32159 19066 ft 375 kts 140°
2026-05-05 14:24 36.21019 24.33902 18655 ft 372 kts 156°
2026-05-05 14:25 36.18583 24.34895 18165 ft 368 kts 173°
2026-05-05 14:25 36.16051 24.35200 17649 ft 364 kts 178°
2026-05-05 14:25 36.13528 24.35444 17178 ft 362 kts 178°
2026-05-05 14:25 36.11024 24.35689 16740 ft 359 kts 178°
2026-05-05 14:26 36.08540 24.35930 16293 ft 356 kts 178°
2026-05-05 14:26 36.06084 24.36164 15861 ft 353 kts 178°
2026-05-05 14:26 36.03641 24.36391 15442 ft 350 kts 178°
2026-05-05 14:26 36.01220 24.36613 15027 ft 347 kts 178°
2026-05-05 14:27 35.98888 24.36826 14558 ft 346 kts 178°
2026-05-05 14:27 35.96447 24.37047 13773 ft 355 kts 178°
2026-05-05 14:27 35.93975 24.37273 13144 ft 356 kts 178°
2026-05-05 14:27 35.91511 24.37500 12618 ft 354 kts 177°
2026-05-05 14:28 35.89067 24.37725 12112 ft 351 kts 177°
2026-05-05 14:28 35.86644 24.37945 11683 ft 345 kts 177°
2026-05-05 14:28 35.84297 24.38158 11553 ft 331 kts 177°
2026-05-05 14:28 35.82035 24.38366 11330 ft 322 kts 176°
2026-05-05 14:29 35.79814 24.38570 10977 ft 318 kts 176°
2026-05-05 14:29 35.77619 24.38772 10615 ft 314 kts 176°
2026-05-05 14:29 35.75462 24.38969 10331 ft 309 kts 176°
2026-05-05 14:29 35.73353 24.39163 9990 ft 306 kts 176°
2026-05-05 14:30 35.71239 24.39358 9543 ft 303 kts 176°
2026-05-05 14:30 35.69142 24.39550 9063 ft 300 kts 176°
2026-05-05 14:30 35.67066 24.39740 8588 ft 298 kts 175°
2026-05-05 14:30 35.65005 24.39931 8136 ft 295 kts 175°
2026-05-05 14:31 35.62961 24.40119 7685 ft 293 kts 175°
2026-05-05 14:31 35.60937 24.40310 7242 ft 290 kts 173°
2026-05-05 14:31 35.58954 24.40694 6806 ft 287 kts 166°
2026-05-05 14:31 35.57030 24.41311 6370 ft 284 kts 165°
2026-05-05 14:32 35.55097 24.41775 5935 ft 282 kts 171°
2026-05-05 14:32 35.53148 24.41996 5441 ft 281 kts 177°
2026-05-05 14:32 35.51173 24.41972 4806 ft 283 kts 184°
2026-05-05 14:32 35.49216 24.41701 4405 ft 282 kts 190°
2026-05-05 14:33 35.47379 24.41002 4096 ft 274 kts 214°
2026-05-05 14:33 35.46151 24.39318 3753 ft 264 kts 249°
2026-05-05 14:33 35.45889 24.37170 3398 ft 249 kts 281°
2026-05-05 14:33 35.46411 24.35249 3091 ft 228 kts 294°
2026-05-05 14:34 35.46983 24.33534 2908 ft 207 kts 294°
2026-05-05 14:34 35.47517 24.31930 2743 ft 202 kts 294°
2026-05-05 14:34 35.48034 24.30375 2582 ft 190 kts 295°
2026-05-05 14:34 35.48516 24.28926 2423 ft 177 kts 295°
2026-05-05 14:35 35.48967 24.27572 2236 ft 167 kts 294°
2026-05-05 14:35 35.49399 24.26268 2023 ft 161 kts 292°
2026-05-05 14:35 35.49798 24.25056 1822 ft 146 kts 294°
2026-05-05 14:35 35.50175 24.23921 1628 ft 146 kts 293°
2026-05-05 14:36 35.50561 24.22760 1426 ft 145 kts 294°
2026-05-05 14:36 35.50934 24.21634 1245 ft 140 kts 294°
2026-05-05 14:36 35.51333 24.20582 1103 ft 134 kts 296°
2026-05-05 14:36 35.51704 24.19524 931 ft 138 kts 292°
2026-05-05 14:37 35.52047 24.18412 787 ft 140 kts 292°
2026-05-05 14:37 35.52422 24.17301 629 ft 144 kts 292°
2026-05-05 14:37 35.52787 24.16164 500 ft 134 kts 292°
2026-05-05 14:37 35.53081 24.15266 489 ft 89 kts 292°
2026-05-05 14:38 35.53246 24.14760 494 ft 40 kts 290°
2026-05-05 14:38 35.53317 24.14544 491 ft 24 kts 291°
2026-05-05 14:38 35.53378 24.14360 491 ft 19 kts 293°
2026-05-05 14:38 35.53431 24.14273 494 ft 10 kts 356°
2026-05-05 14:39 35.53499 24.14292 495 ft 11 kts 21°
2026-05-05 14:39 35.53576 24.14329 498 ft 13 kts 21°
2026-05-05 14:39 35.53631 24.14355 493 ft 4 kts 21°
2026-05-05 14:39 35.53663 24.14370 498 ft 6 kts 14°
2026-05-05 14:40 35.53695 24.14343 497 ft 6 kts 292°
2026-05-05 14:40 35.53713 24.14287 491 ft 8 kts 292°
2026-05-05 14:40 35.53736 24.14216 498 ft 10 kts 291°
2026-05-05 14:40 35.53763 24.14132 497 ft 11 kts 291°
2026-05-05 14:41 35.53784 24.14086 490 ft 3 kts 336°
2026-05-05 14:41 35.53815 24.14089 488 ft 5 kts 18°
2026-05-05 14:41 35.53856 24.14108 498 ft 5 kts 21°
2026-05-05 14:41 35.53863 24.14112 498 ft 0 kts 21°